Theta_e
334 334 333 332 332 332 332 332 332 331 331 332 332 332 332 331 331 331 331 330 330 328 327 327 328 328 328 329 331 332 333 332 331 329 329 328 329 329 327 330 332 331 331 330 329 327 319 311 311 317 319 317 317 317 315 317 320 317 317 319 319 319 319 319 320 320 320 321 321 321 320 320 319 320 320 320 320 320 320 320 320 320 320 321 321
333 333 333 332 332 332 332 332 333 332 332 332 332 332 332 332 331 331 330 330 330 328 327 327 327 328 328 328 330 332 332 332 331 329 329 328 329 330 328 330 332 331 331 330 330 329 323 317 315 316 316 316 316 318 317 318 319 317 316 316 316 318 319 319 318 319 320 320 320 320 319 319 320 319 319 320 320 320 319 319 319 319 319 319 319
333 333 332 332 332 332 332 332 332 332 333 333 332 332 331 331 331 331 330 330 329 328 328 327 328 328 328 328 329 331 332 331 330 329 329 329 330 330 329 330 332 331 330 330 329 329 327 326 323 319 320 322 322 322 322 321 321 319 318 314 311 312 313 315 318 318 318 318 319 318 317 319 319 319 319 320 319 319 319 319 319 319 319 319 319
333 333 332 331 331 331 332 332 332 332 332 332 333 332 331 331 331 330 330 329 329 328 328 328 328 328 327 328 329 331 332 331 329 329 329 329 330 330 329 329 331 331 330 330 329 328 328 329 327 324 324 325 325 325 324 323 322 321 320 317 312 309 309 311 314 316 317 317 318 317 318 319 319 319 319 319 319 319 319 319 319 319 319 319 318
333 333 332 332 332 332 332 331 332 332 332 332 332 332 331 331 331 330 329 329 329 329 328 328 328 328 327 327 329 331 331 330 329 328 329 329 329 329 329 329 330 331 330 330 329 328 328 329 328 327 326 327 327 326 325 324 322 322 322 320 314 311 312 312 311 312 315 315 316 318 318 318 318 318 318 319 319 319 319 319 318 318 318 318 317
333 332 333 333 332 331 332 332 332 332 331 331 331 331 331 331 330 330 330 329 329 329 328 328 327 327 327 327 329 331 331 330 329 329 329 329 329 329 329 329 330 330 330 330 330 329 328 328 328 328 327 327 328 328 327 325 323 323 323 321 317 313 313 314 312 311 313 312 314 316 316 317 317 317 317 317 318 318 319 318 317 317 317 317 317
332 332 332 332 332 332 331 331 331 331 331 331 331 331 331 331 331 330 329 329 329 329 328 327 327 326 326 327 329 330 331 330 329 329 329 328 329 330 330 329 330 330 329 329 329 329 329 327 326 327 327 327 326 327 327 327 326 324 323 322 320 317 314 313 312 311 312 311 311 311 311 312 312 313 314 314 315 316 316 317 317 317 316 317 318
332 331 332 332 332 332 331 331 331 331 330 331 331 331 331 330 330 330 329 329 329 328 327 327 327 326 326 326 328 329 330 330 329 328 327 328 329 330 330 330 330 330 329 329 328 329 329 327 326 326 326 326 325 326 326 327 326 324 324 322 321 321 319 317 315 313 312 310 311 310 308 306 304 308 310 309 312 314 314 314 316 316 316 316 317
332 332 332 333 332 331 331 331 331 331 331 331 330 331 331 330 330 330 329 329 328 328 327 327 326 326 326 326 327 328 328 329 329 328 327 327 329 330 331 331 331 330 330 330 329 329 329 328 327 326 326 326 326 326 326 326 326 326 326 324 322 323 322 322 321 319 317 316 316 315 312 308 305 306 306 306 308 310 310 311 313 315 317 316 316
331 332 333 333 332 332 332 331 332 331 331 330 330 330 330 330 330 330 330 328 328 327 327 327 327 326 327 327 327 327 328 328 329 330 328 326 327 328 330 331 330 330 330 330 328 328 329 329 328 327 326 326 326 326 326 326 327 327 328 327 325 323 323 324 324 323 322 322 321 320 319 316 313 310 308 306 306 307 308 308 310 314 315 315 316
331 332 333 332 332 332 332 332 331 331 330 330 330 330 330 330 330 329 329 328 328 328 327 327 327 327 327 328 329 329 329 329 329 329 327 326 325 326 329 331 330 330 330 329 329 328 328 328 328 328 327 326 326 326 326 326 327 327 328 328 327 325 325 326 326 324 324 323 324 324 323 322 321 319 315 312 309 308 308 305 307 312 311 312 314
332 333 332 332 332 332 332 332 331 331 330 329 330 330 330 330 330 329 329 328 328 328 327 328 327 327 328 329 330 330 330 330 329 329 327 327 327 325 327 329 329 329 329 329 329 328 328 327 327 327 326 326 326 326 326 326 327 327 328 327 327 327 327 328 327 326 326 325 324 324 324 324 324 323 321 319 316 314 313 309 308 308 305 306 308
332 332 332 332 332 332 332 331 331 331 330 329 331 331 330 330 329 329 329 328 328 328 328 327 327 327 327 328 328 329 330 329 329 329 329 329 329 327 327 328 327 328 328 328 328 328 328 328 327 326 326 326 326 325 326 326 326 327 327 327 327 328 328 329 329 328 328 328 327 326 325 324 324 324 324 323 322 320 318 316 312 309 305 302 302
331 331 332 332 332 332 332 331 331 331 330 330 331 331 330 330 329 328 329 328 328 328 328 328 327 327 326 327 327 327 328 328 328 328 328 328 329 328 328 328 327 328 328 328 328 328 328 328 328 327 327 327 326 325 325 325 326 326 327 327 327 328 328 329 330 329 329 329 328 327 326 325 325 325 325 325 324 323 322 320 318 316 312 308 303
331 331 332 332 332 332 331 331 331 330 330 330 331 331 330 330 329 328 328 328 328 328 328 328 327 326 327 327 327 327 328 327 327 327 327 327 328 328 327 327 327 328 327 328 328 328 328 327 328 327 327 327 328 327 326 326 326 326 327 327 326 327 328 328 329 329 329 329 328 328 327 327 326 326 326 325 325 325 324 323 321 320 319 317 313
331 331 332 331 331 331 330 330 330 330 329 330 331 331 330 330 330 329 328 328 328 328 328 328 328 327 326 325 324 325 328 328 326 326 327 327 328 328 327 327 327 327 327 327 327 328 327 327 327 327 327 327 328 327 327 327 327 326 327 326 325 326 327 328 328 329 329 329 328 328 327 327 327 327 327 327 326 325 325 324 323 323 322 321 320
330 330 330 330 330 330 330 330 330 330 330 330 330 330 330 331 330 329 328 328 328 328 329 329 328 327 326 325 325 326 327 326 326 326 326 326 327 328 327 327 327 328 327 327 326 326 327 326 327 327 326 327 327 327 327 327 326 326 326 325 325 325 326 327 328 328 328 328 328 328 327 327 327 327 327 326 326 325 325 324 324 323 324 324 323
328 328 329 329 329 329 329 329 330 330 330 330 330 330 330 331 331 330 328 328 328 328 329 329 329 327 326 326 328 327 325 326 327 326 326 326 326 327 327 326 326 327 327 326 325 325 325 325 325 326 326 326 325 324 325 326 325 325 325 324 324 324 325 326 327 327 327 327 327 327 327 326 326 326 325 325 325 325 324 324 325 324 324 325 324
326 326 327 328 328 329 329 330 330 330 330 330 330 330 330 330 330 330 328 328 328 328 329 329 329 328 327 327 327 326 325 325 326 326 327 327 327 326 326 325 325 326 326 325 324 323 323 324 324 324 325 325 324 324 324 324 324 324 324 324 324 325 326 326 327 327 326 327 327 326 326 326 325 325 324 324 324 324 324 324 325 324 324 325 325
325 325 326 327 328 329 329 330 330 330 330 330 330 329 329 330 330 329 329 328 329 328 329 329 328 328 328 327 328 327 325 325 325 326 327 328 327 325 325 325 325 324 324 323 322 323 323 324 324 324 324 324 324 324 324 324 324 323 323 323 323 324 324 325 325 325 324 324 324 323 322 322 321 321 321 321 322 323 323 323 324 324 324 324 324
324 324 325 326 327 328 329 328 328 328 329 329 329 329 328 328 329 329 329 328 329 329 329 329 328 328 328 327 326 325 325 325 325 326 326 327 327 326 325 325 325 324 323 323 323 323 323 323 324 324 324 323 323 323 323 323 321 318 316 316 316 317 317 317 317 317 316 315 314 314 314 313 313 314 314 314 314 316 317 317 318 320 321 323 323
324 324 325 326 326 327 327 326 325 326 328 327 327 328 328 327 328 328 328 328 329 329 328 329 328 328 328 327 325 324 324 324 325 326 325 326 326 325 325 325 324 322 322 324 323 323 323 323 323 322 322 321 321 321 320 317 313 311 309 309 309 309 309 309 308 308 308 308 307 307 307 307 308 308 308 308 309 309 310 310 311 313 314 316 318
324 324 325 325 325 325 325 324 324 325 326 326 326 327 327 327 327 327 327 327 328 328 328 329 328 328 328 326 325 325 325 325 325 325 325 325 325 324 324 324 322 320 321 322 321 320 321 320 319 318 318 317 316 316 314 311 308 307 306 305 304 304 304 304 304 304 304 304 303 303 303 303 304 304 304 304 305 305 306 307 307 308 309 309 310
324 324 324 324 324 324 324 323 323 324 325 326 327 327 327 326 327 327 327 327 328 328 328 329 328 327 328 327 325 325 325 325 325 324 324 324 324 324 323 322 321 318 317 317 315 315 315 314 313 312 312 312 311 310 309 307 305 304 304 304 304 304 304 304 304 304 304 303 303 303 302 302 302 301 301 301 301 301 302 302 302 303 303 304 305
324 323 323 323 324 324 324 322 321 322 325 327 327 327 327 326 326 326 327 327 327 327 328 328 327 327 328 327 326 326 325 325 325 324 324 323 323 323 322 321 320 318 315 312 310 310 310 309 309 309 309 308 308 307 306 304 304 305 306 306 305 305 305 305 305 304 303 303 302 302 302 302 302 301 302 301 301 301 301 300 300 300 300 300 300
323 323 322 323 324 324 323 322 320 320 324 327 327 327 327 327 326 326 326 326 326 326 327 327 327 327 327 327 327 326 326 325 325 324 323 323 322 322 321 320 320 319 315 311 311 310 309 308 308 308 307 307 306 305 303 304 306 307 307 306 306 306 306 306 305 305 303 303 302 302 302 302 302 302 301 301 301 301 301 300 300 300 300 300 300
323 322 322 322 324 324 323 321 319 318 321 325 326 325 325 325 326 325 325 325 325 325 325 325 325 325 325 326 326 327 326 325 325 324 323 323 322 321 319 320 320 318 314 313 314 312 308 308 308 307 306 305 304 303 303 306 307 307 307 306 306 306 306 306 306 306 305 305 304 304 304 303 303 303 302 302 302 301 301 301 301 301 301 300 300
323 322 321 322 323 324 322 321 320 318 319 323 324 324 322 321 322 323 323 323 323 322 322 323 323 324 324 324 325 325 326 325 325 324 323 323 321 319 318 318 319 318 316 316 315 312 309 308 307 306 304 303 303 303 305 307 307 307 308 307 306 306 306 306 306 306 306 306 305 305 305 304 304 304 304 303 303 302 302 301 302 302 302 300 299
323 322 321 321 322 323 322 321 320 319 318 320 322 322 320 317 317 319 319 318 318 318 319 321 323 323 324 324 325 325 325 325 324 324 323 322 319 318 317 316 315 317 319 319 317 313 310 308 306 305 303 302 303 304 306 307 307 307 307 307 307 306 306 306 306 306 306 305 305 305 305 305 304 304 304 304 303 303 302 301 301 302 302 301 299
323 322 321 320 321 322 322 320 319 319 318 318 319 321 319 316 315 316 316 315 315 316 316 318 321 323 324 324 325 325 325 324 324 324 323 321 318 316 315 313 312 315 318 318 318 315 311 310 307 304 303 303 303 305 306 307 307 307 307 307 307 306 306 306 306 306 305 306 305 305 305 305 305 305 304 304 303 303 302 301 301 301 302 302 301
322 321 321 320 320 320 321 320 318 318 317 316 318 319 318 315 314 314 314 314 314 314 314 315 317 320 322 324 324 324 324 324 324 323 321 319 317 316 314 313 313 313 313 315 317 315 312 311 309 305 305 304 303 305 306 306 306 307 307 307 307 307 306 306 305 306 305 306 306 305 305 305 305 305 304 304 303 302 301 301 301 301 302 302 302
321 321 320 319 319 319 319 319 318 317 315 315 317 317 316 315 314 314 313 313 313 313 312 312 313 315 319 321 323 323 323 323 323 323 321 318 317 316 315 315 315 315 312 312 315 314 312 311 309 306 306 306 305 305 305 306 306 306 307 307 307 307 307 306 306 305 305 305 306 306 305 305 305 305 304 304 303 302 300 300 301 302 302 302 302
320 320 319 319 318 318 318 318 316 315 313 313 315 316 315 315 314 314 314 313 313 313 312 312 312 313 315 318 321 322 322 322 322 322 321 319 318 317 317 317 317 317 315 313 313 313 312 312 311 308 307 307 307 306 306 306 307 307 307 307 307 307 307 307 306 305 305 305 306 306 306 305 305 305 304 303 302 301 300 300 301 302 302 302 302
319 319 319 318 317 317 317 316 315 315 313 312 313 315 315 315 314 314 313 313 312 312 312 312 312 312 313 315 317 320 321 322 322 321 321 320 320 319 319 319 318 318 318 315 313 312 312 312 311 309 307 308 308 307 307 307 307 307 307 307 308 308 307 307 306 306 305 306 306 306 306 306 305 304 304 302 301 301 300 300 301 302 302 302 302
318 318 318 317 317 317 316 316 315 314 314 313 314 314 314 314 314 314 313 313 313 313 313 312 312 312 312 313 314 315 317 318 318 318 318 319 319 320 320 320 320 320 319 317 314 312 311 311 311 309 307 307 308 308 308 307 307 307 307 307 307 307 308 307 307 306 306 306 306 306 306 305 305 304 303 302 301 301 301 301 301 302 302 302 302
316 315 316 316 317 317 316 315 314 313 313 314 314 313 312 312 313 313 313 314 313 313 313 313 313 312 312 313 313 313 313 314 314 314 314 315 315 316 317 318 320 320 319 318 316 313 311 310 310 309 307 306 307 308 308 308 308 308 307 307 307 307 307 307 307 306 306 306 306 306 305 305 304 303 302 301 301 301 301 301 302 302 302 302 301
315 312 313 315 316 317 316 315 314 313 313 313 313 313 313 312 313 313 314 313 313 313 313 313 312 312 312 312 313 314 314 313 313 313 313 313 314 314 313 313 315 318 318 318 316 313 311 309 309 308 307 307 307 307 308 308 308 308 307 307 308 307 307 307 307 306 305 306 306 305 305 304 303 303 302 301 301 300 301 301 302 302 302 302 301
314 313 313 314 315 315 315 315 314 313 313 313 314 314 314 313 314 314 314 314 313 313 313 313 313 313 313 312 312 314 314 314 314 314 314 314 314 314 313 311 312 314 316 317 316 313 310 310 309 308 307 307 307 308 307 307 307 307 307 307 307 307 307 307 306 306 306 306 305 305 304 303 302 302 301 301 300 300 300 301 302 302 301 301 301
314 313 314 314 314 315 315 315 315 314 313 314 314 314 314 314 314 314 314 313 314 313 313 313 312 313 315 315 314 314 315 315 314 314 314 314 314 314 313 311 310 311 313 315 314 311 309 308 309 308 307 307 307 307 307 307 306 307 307 307 307 307 307 307 306 306 305 305 304 304 303 302 301 301 300 300 300 300 300 301 301 301 301 300 300
315 314 315 314 314 314 315 315 315 314 314 314 314 314 314 314 314 315 314 313 313 313 313 313 313 313 315 316 316 316 317 317 316 316 315 315 314 314 314 313 311 310 311 311 310 308 307 307 308 308 307 307 307 307 307 307 306 306 307 308 307 307 306 306 306 305 305 304 304 303 302 301 300 300 300 300 300 300 300 300 300 300 300 299 299
315 315 315 315 315 314 315 315 314 314 314 315 315 315 315 314 315 315 314 313 313 313 314 314 314 315 315 316 316 317 317 317 317 317 317 316 316 315 315 314 313 312 311 310 308 307 306 306 306 307 307 307 307 307 307 307 307 307 308 308 308 307 306 306 306 305 305 304 303 302 301 300 299 299 299 299 299 299 299 299 299 299 298 298 298
316 315 315 316 316 316 315 314 314 314 314 314 315 315 315 315 316 316 315 314 314 314 315 315 314 315 316 317 317 317 318 318 318 317 318 318 317 317 316 315 314 314 313 312 310 308 307 306 306 307 307 307 307 307 307 307 307 307 308 308 308 306 306 305 305 304 304 303 302 300 300 300 299 299 299 299 298 298 298 298 298 297 297 297 297
317 316 316 316 316 317 316 316 316 316 315 315 315 315 315 316 317 317 316 315 314 315 317 317 316 316 317 317 318 318 318 319 318 318 318 318 318 318 317 316 315 314 314 313 312 311 309 308 306 307 308 308 308 308 308 308 308 308 308 308 308 307 306 305 304 303 303 302 300 299 299 299 299 298 298 298 298 297 297 297 297 296 296 296 296
318 318 318 317 317 316 317 317 317 317 317 317 316 316 316 316 317 317 317 316 315 316 317 318 318 318 318 318 318 319 319 319 319 319 319 318 318 318 318 317 315 314 314 313 313 312 312 311 309 308 307 308 309 309 309 308 308 308 308 308 307 307 306 305 304 303 302 302 300 299 299 299 298 298 298 298 297 297 297 296 296 296 296 296 295
320 320 319 319 318 318 317 317 317 317 317 317 317 316 317 317 317 317 318 318 317 317 318 318 319 319 319 319 319 319 319 320 320 320 320 319 319 319 319 318 317 316 316 315 314 313 313 312 312 311 310 309 309 310 310 309 309 308 308 307 307 307 306 305 304 303 301 301 300 299 298 298 298 298 298 297 297 297 296 296 295 295 295 295 295
321 321 321 320 320 320 319 319 319 319 318 318 318 318 317 317 317 317 317 317 318 318 318 318 318 319 319 319 319 319 320 320 320 320 320 320 319 319 319 318 318 318 318 317 316 315 314 312 312 312 313 312 311 310 310 309 309 309 308 307 307 307 306 304 303 302 300 300 299 299 298 298 298 298 297 297 297 296 296 295 295 295 295 295 295
320 319 319 319 320 320 320 320 320 320 320 319 319 319 319 318 318 318 318 318 318 318 318 318 319 319 320 320 320 319 320 320 320 320 320 319 319 319 318 318 318 318 318 317 317 316 316 314 311 312 313 313 313 312 310 309 309 309 308 308 307 306 305 303 301 300 300 299 299 298 298 298 298 297 297 297 296 296 295 294 294 294 294 295 295
314 314 314 314 315 317 317 318 319 319 319 320 320 320 320 319 319 319 319 319 319 319 319 319 319 319 320 320 320 320 320 320 320 320 320 320 319 319 318 318 318 317 317 317 316 315 315 314 312 312 312 312 312 311 310 309 308 308 308 307 305 304 303 301 300 299 299 298 298 298 298 298 297 297 296 296 295 295 295 294 294 294 294 294 294
306 307 308 307 308 310 311 313 314 314 315 316 317 319 320 320 320 320 319 320 319 319 319 319 319 319 319 319 319 319 319 319 319 319 320 319 319 318 318 318 317 317 315 314 314 314 313 313 313 313 312 311 309 308 308 308 308 308 308 306 304 303 302 300 299 298 298 298 298 298 297 297 296 295 295 295 295 295 294 294 294 294 294 293 293
303 303 303 304 304 305 306 307 307 308 308 310 311 313 315 316 318 318 319 319 319 319 320 320 320 320 320 320 320 319 319 319 319 319 318 318 318 318 318 317 316 316 315 313 312 312 312 312 312 312 311 309 307 305 304 304 305 305 306 305 304 302 301 300 299 299 298 298 298 298 296 296 295 294 294 294 294 294 294 294 293 293 293 292 292
302 302 302 302 302 302 303 303 304 304 305 306 307 308 309 310 312 314 315 317 317 318 319 319 321 321 321 321 320 320 320 320 320 319 319 318 318 318 318 316 315 315 315 313 311 310 311 311 310 310 309 308 307 306 305 304 303 303 303 303 303 301 301 300 300 299 299 298 297 296 295 294 294 294 293 293 294 294 293 293 293 292 292 292 292
Wind_Speed
8 8 7 7 7 7 7 7 6 6 5 5 4 4 4 4 4 4 4 5 5 5 5 5 5 6 6 6 6 8 9 10 11 10 10 10 9 8 8 10 10 5 3 4 4 6 5 5 6 7 7 7 7 7 7 7 7 6 6 6 5 6 7 6 6 6 7 7 7 6 6 6 6 6 7 8 9 8 9 9 9 8 6 7 7
6 7 6 5 5 5 6 6 6 5 4 3 3 3 2 3 3 4 4 4 4 4 4 4 5 5 5 5 6 7 8 10 11 11 11 11 10 8 9 11 10 6 5 4 4 5 6 7 7 7 8 8 8 8 8 8 7 6 6 5 5 6 6 5 5 6 5 5 5 5 6 7 7 6 8 9 9 9 9 9 9 9 8 7 6
5 5 4 4 3 3 3 5 5 5 3 3 3 3 2 2 2 3 4 4 4 4 4 4 4 5 5 5 5 7 9 11 12 12 12 11 11 9 10 11 9 7 7 5 3 4 4 6 7 8 8 8 8 7 8 8 8 8 7 6 5 5 4 5 5 5 4 4 4 5 6 7 7 7 8 8 8 9 9 9 9 9 9 9 9
4 4 4 4 3 2 1 3 4 3 3 4 5 4 4 2 2 3 4 4 4 5 5 4 4 5 6 5 6 8 10 13 14 13 13 12 11 10 10 11 10 8 7 6 2 3 4 5 5 6 6 6 6 5 7 8 9 9 8 7 5 4 4 5 5 4 4 4 4 5 6 5 5 6 7 7 7 8 8 8 8 8 8 8 8
5 5 5 4 3 1 1 2 3 3 4 5 6 5 4 4 4 4 4 4 4 5 5 5 5 6 7 7 7 8 10 13 14 13 13 11 10 10 10 12 12 9 7 6 3 2 5 4 2 3 4 4 4 3 5 7 8 8 8 7 6 5 5 5 5 4 4 4 4 5 4 4 5 5 5 6 6 6 6 6 6 7 7 7 6
5 5 5 4 4 2 2 4 4 5 6 6 6 5 5 5 5 6 6 5 5 5 5 5 5 6 7 7 7 8 10 12 13 12 11 10 10 10 10 12 12 10 7 6 5 2 5 4 1 2 1 1 1 1 3 6 7 7 8 8 7 6 5 5 5 5 4 4 4 4 4 4 4 4 4 4 4 5 6 5 6 6 7 8 8
5 5 4 5 5 4 4 5 5 6 7 7 6 6 6 6 6 6 6 6 6 6 6 5 6 7 7 7 7 8 10 11 11 11 10 10 11 10 10 11 11 10 7 5 4 4 5 4 3 2 1 2 3 2 2 4 5 6 8 8 8 8 6 5 5 5 5 5 5 5 4 4 4 4 4 3 3 4 5 5 5 6 6 8 8
5 5 6 6 6 5 5 6 7 7 7 7 7 6 6 7 6 5 5 7 7 6 6 6 6 7 7 6 7 8 9 10 10 10 10 11 11 10 10 10 9 8 7 6 3 3 4 5 5 2 1 4 6 5 4 4 3 4 7 7 8 8 8 7 6 6 5 5 6 6 5 5 5 4 4 4 4 3 3 3 3 4 5 5 7
7 7 7 8 7 6 7 7 7 7 7 7 7 6 6 6 7 6 4 6 7 7 7 6 7 7 6 6 6 7 8 9 10 10 11 11 11 10 9 8 7 6 5 5 3 2 4 5 4 2 1 3 4 5 5 4 3 3 5 6 7 6 6 7 7 7 7 6 7 7 6 6 6 5 5 5 4 4 3 3 3 3 4 4 5
8 9 9 8 8 7 8 8 8 7 7 7 7 7 6 6 8 7 5 5 7 8 9 9 9 10 10 9 7 6 6 8 9 9 10 10 10 10 8 6 6 5 3 3 2 3 3 4 3 2 1 2 3 2 3 3 3 3 3 4 5 4 4 4 5 6 7 7 7 7 8 7 7 6 6 6 5 5 4 4 4 3 3 3 3
9 10 10 9 9 9 9 9 8 7 7 7 8 8 7 7 8 8 7 6 7 8 11 11 12 13 14 13 10 9 6 6 7 7 9 10 8 9 8 7 5 3 2 2 3 3 3 3 3 3 2 2 2 2 3 3 2 2 3 3 2 2 2 2 2 4 5 5 4 5 7 8 8 8 7 6 6 6 5 5 4 3 3 3 2
10 10 10 9 9 10 11 10 8 7 6 7 9 8 8 8 7 8 8 8 8 9 10 12 16 17 16 15 12 10 7 6 6 6 7 7 5 7 7 6 5 4 3 3 3 4 4 3 2 3 3 3 2 2 3 3 4 4 4 4 2 2 2 1 1 2 1 1 2 3 4 5 6 8 8 8 8 8 6 6 6 5 4 4 3
10 10 10 9 9 10 11 10 9 7 6 7 8 8 7 8 8 8 8 10 11 10 11 14 18 18 16 15 13 11 7 5 6 7 6 4 1 4 6 5 4 4 4 4 4 4 4 3 2 2 2 2 2 2 3 3 4 5 5 6 5 3 2 3 2 2 2 3 4 3 1 2 3 4 6 8 8 8 7 6 7 7 6 5 4
10 10 9 9 8 9 9 9 9 8 8 8 8 8 8 8 9 9 9 12 12 13 14 13 12 13 13 12 11 10 8 6 8 9 7 5 5 5 4 5 6 5 6 6 5 4 3 3 3 1 1 2 2 2 3 3 4 5 6 6 6 4 3 2 4 4 3 1 3 5 3 1 0 1 3 5 5 7 7 6 7 8 7 6 5
10 9 8 7 7 8 9 9 9 9 9 9 9 9 9 8 7 9 11 13 13 16 15 8 10 14 11 6 3 5 6 6 8 10 8 7 7 8 8 6 5 4 5 6 5 6 4 3 2 1 2 3 3 2 2 3 3 4 4 5 5 4 3 3 2 2 3 2 0 2 3 3 2 1 2 2 2 3 4 5 6 7 7 6 5
9 8 7 7 7 8 9 9 9 9 9 10 10 10 10 9 8 9 13 14 14 17 14 8 13 14 7 3 1 2 2 3 6 9 9 9 8 8 9 9 7 6 5 5 6 6 4 2 1 1 2 3 2 1 1 1 2 3 5 6 5 3 3 4 5 3 1 1 1 1 2 2 1 1 3 4 3 2 2 4 4 5 7 7 5
9 9 8 8 7 7 8 9 9 9 9 9 9 9 10 9 9 10 13 15 15 17 14 8 12 11 4 4 3 1 1 4 5 6 9 9 9 9 9 10 10 10 10 9 8 6 3 3 2 1 1 1 1 2 2 2 3 4 5 6 7 6 4 5 6 6 4 3 2 2 3 3 2 3 5 6 5 5 5 5 3 2 5 6 6
9 9 9 8 8 7 7 8 8 9 9 8 8 9 10 9 9 10 12 14 14 17 14 10 12 9 3 4 1 1 7 7 4 3 8 10 10 10 10 12 12 12 12 9 7 6 5 5 5 6 6 7 6 6 6 5 5 6 6 7 8 8 6 6 7 8 7 6 6 7 7 6 3 2 3 4 4 4 5 6 4 2 3 4 5
9 9 8 8 8 8 8 8 8 8 7 8 8 9 9 9 8 9 11 13 13 15 15 12 13 9 5 4 2 4 13 10 5 4 5 6 10 11 11 11 11 12 11 8 7 8 9 9 9 10 10 10 10 9 9 8 9 9 9 9 8 8 8 8 10 13 13 12 13 12 11 11 9 9 10 10 9 8 6 6 3 1 2 4 6
9 9 8 7 7 8 9 8 8 7 7 8 9 9 9 9 9 9 10 11 11 13 13 13 14 10 5 5 3 8 13 10 10 10 6 4 7 9 11 13 13 12 9 9 9 10 10 11 11 10 10 10 10 10 10 10 11 12 12 11 10 11 11 11 13 15 15 15 14 13 11 11 12 12 12 11 11 11 10 10 8 6 6 5 4
8 9 8 6 7 8 9 8 8 7 7 8 8 9 9 9 9 9 10 10 10 10 11 13 14 11 7 6 8 12 12 9 13 15 9 5 4 5 8 12 14 12 10 10 10 9 9 9 9 9 9 10 10 10 11 12 14 15 15 14 14 14 14 14 14 14 15 14 14 14 13 14 14 14 14 14 13 12 11 11 10 8 8 7 5
8 9 8 7 7 8 8 7 6 6 7 7 7 7 8 7 7 8 9 9 9 9 9 11 13 10 8 9 13 16 12 9 12 14 10 7 6 7 8 9 9 10 9 9 7 7 7 7 8 9 9 10 11 12 13 15 16 17 16 15 15 15 15 14 14 14 14 14 14 14 14 14 14 13 13 13 13 12 12 11 11 9 8 7 6
8 8 8 8 8 8 7 6 4 4 6 5 5 5 5 6 7 8 9 9 9 9 9 11 11 9 8 10 15 16 11 9 14 16 12 9 8 8 8 10 10 9 8 7 7 7 7 8 9 9 10 11 12 13 15 16 17 16 16 16 17 17 16 16 16 16 16 16 15 15 15 14 14 13 13 12 11 11 10 10 9 8 8 7 7
9 8 8 8 9 9 7 5 3 3 5 5 4 4 4 5 6 7 8 8 8 8 10 11 11 11 9 10 13 12 6 9 17 18 15 15 14 10 9 10 9 7 7 7 7 9 9 9 10 11 12 13 14 15 15 16 16 17 17 18 19 19 18 18 18 18 17 17 17 17 17 17 16 15 15 14 13 12 11 10 9 8 8 7 7
10 9 8 8 10 10 8 6 4 4 4 4 4 4 4 4 5 6 7 7 7 7 8 9 10 10 10 9 11 9 3 7 15 17 18 21 19 13 10 9 7 6 6 6 8 8 9 10 11 12 13 14 14 15 15 17 19 19 19 20 20 20 20 20 19 19 19 19 19 19 19 19 19 18 17 16 15 14 13 12 11 11 10 9 8
11 9 8 8 10 11 9 7 6 4 3 4 4 3 3 4 4 5 5 6 6 6 6 7 8 8 9 9 10 9 5 7 14 17 20 23 20 17 13 9 7 6 4 5 6 5 6 10 12 12 12 13 14 15 17 20 22 21 20 20 20 20 20 20 21 21 21 21 21 20 20 20 20 20 20 19 17 16 15 14 13 12 12 11 10
11 9 8 9 11 11 9 8 7 5 3 4 4 3 3 3 4 4 5 5 5 5 4 4 5 6 9 9 9 9 7 8 13 16 19 23 23 25 22 13 4 3 3 3 2 3 7 10 11 11 11 12 14 16 20 22 22 21 20 20 20 19 19 19 20 20 20 21 20 20 20 20 20 21 21 21 20 18 16 15 14 13 13 12 11
11 9 8 8 10 11 10 8 7 5 4 4 3 4 3 2 3 5 5 5 5 4 4 4 4 5 6 7 8 9 7 9 12 14 18 22 24 27 27 21 10 3 1 1 1 4 8 9 9 10 11 13 15 18 21 22 21 20 20 19 19 19 18 18 18 18 18 19 19 19 19 18 19 19 20 20 20 19 18 16 14 14 14 13 11
11 9 8 8 9 10 9 8 7 6 5 4 3 4 3 3 4 6 6 6 5 4 4 4 4 4 4 6 7 8 9 10 11 14 19 22 24 24 23 22 18 9 2 1 2 4 9 9 8 10 13 15 17 20 21 21 20 19 18 18 18 18 17 16 16 16 16 16 16 16 16 16 17 17 18 18 18 18 18 16 13 13 14 13 12
11 9 8 7 8 8 9 8 7 5 4 3 3 4 4 5 7 9 8 8 6 6 5 4 5 5 6 7 8 9 9 10 11 15 20 21 23 22 18 17 16 11 7 5 3 6 11 10 8 11 15 17 18 20 20 19 19 18 17 17 16 16 16 15 15 14 14 14 14 14 14 14 15 15 16 16 16 17 18 16 12 10 11 11 10
11 10 8 7 7 8 9 8 6 5 3 3 4 5 5 7 10 10 10 8 7 7 6 5 5 5 7 8 9 9 10 11 13 17 19 19 19 18 15 13 8 6 10 10 4 7 13 11 9 13 16 17 18 19 18 18 17 16 15 15 14 14 13 13 12 12 12 12 11 11 11 12 13 13 14 14 15 16 16 14 11 9 8 7 8
11 10 8 7 7 8 9 8 6 4 4 5 6 7 7 9 10 10 9 7 6 6 5 4 4 4 5 7 9 10 11 12 14 16 16 16 17 15 12 11 5 3 9 10 6 8 13 11 10 13 16 16 17 18 17 16 15 14 13 13 12 12 11 11 10 10 10 9 9 9 9 10 10 11 12 13 14 15 15 13 10 8 7 6 6
11 10 8 7 9 9 9 8 7 5 5 6 8 8 9 10 9 8 6 4 4 5 5 4 4 4 5 6 7 9 10 11 12 13 14 14 15 15 13 13 11 8 8 8 7 10 12 12 11 13 16 17 17 17 17 16 15 14 13 12 11 10 9 9 8 7 8 7 7 7 8 8 9 10 12 13 14 14 14 12 10 8 7 6 6
9 9 8 8 10 10 10 9 8 7 6 7 8 9 9 9 8 6 5 4 5 6 6 5 5 4 5 7 8 8 8 9 9 10 12 13 14 16 17 16 17 15 12 9 9 12 14 14 13 14 16 17 17 17 17 17 15 14 13 12 11 10 9 7 7 6 6 6 5 6 7 7 9 10 12 12 13 13 13 12 10 8 7 7 7
9 8 8 9 11 11 10 9 8 8 8 8 8 8 9 9 8 6 6 6 6 6 6 6 5 5 5 7 8 8 8 8 8 9 10 12 13 16 18 20 21 20 16 12 10 12 16 16 14 15 17 18 17 17 17 16 14 13 12 12 10 10 8 7 6 6 5 4 4 5 6 7 9 10 11 11 11 12 12 11 9 8 7 7 7
8 8 8 10 11 11 10 9 8 8 9 8 8 8 9 10 9 7 7 7 6 5 5 5 5 3 3 5 6 7 7 7 7 7 7 8 9 10 13 17 21 23 20 16 12 11 15 18 17 16 17 18 16 16 15 15 14 12 11 11 10 9 8 7 6 6 5 4 3 3 5 7 9 10 10 10 11 11 11 10 8 7 7 8 8
8 8 9 11 12 11 10 9 8 8 8 9 8 8 8 9 9 8 7 6 5 5 5 4 4 3 2 3 4 4 4 5 5 5 5 6 7 7 9 10 14 18 19 18 16 13 13 17 18 17 17 17 16 15 14 14 14 12 11 10 10 10 10 9 7 7 6 4 2 3 6 8 9 9 9 10 10 10 10 9 8 7 7 8 8
8 9 10 11 12 11 10 10 8 8 8 9 9 8 8 8 8 7 6 6 6 6 5 4 3 2 2 3 4 4 3 3 3 3 4 4 5 7 8 7 7 10 14 18 18 14 12 14 17 19 19 18 17 15 15 14 13 13 11 10 9 11 12 10 9 8 6 3 1 3 6 8 8 9 8 9 9 9 9 9 8 7 7 7 8
8 9 9 10 11 11 10 9 8 7 8 9 8 8 8 7 6 6 7 7 7 6 5 5 4 3 2 3 3 3 2 1 1 2 3 4 5 6 7 7 6 7 11 16 17 16 13 13 16 19 19 19 17 16 15 14 13 13 12 11 12 13 12 11 10 8 5 2 1 4 6 6 6 6 6 6 7 7 7 7 7 6 7 7 7
8 8 8 9 11 12 11 10 9 8 8 8 8 8 8 7 7 6 7 8 8 7 7 6 6 5 5 4 3 2 2 2 2 2 2 3 3 5 6 6 7 7 10 15 16 15 14 14 15 17 18 18 18 16 14 14 15 14 14 15 16 16 14 12 10 8 5 2 1 3 5 4 4 3 4 4 5 5 5 6 6 6 7 8 9
7 8 9 9 11 12 12 12 11 10 10 10 9 9 9 9 8 8 9 9 10 9 9 9 8 8 8 7 7 6 5 5 5 5 4 3 3 4 5 7 8 9 11 13 14 14 14 14 15 16 16 17 18 17 17 18 18 18 17 17 17 17 15 12 10 8 6 2 2 2 2 2 2 2 3 4 4 4 5 6 7 8 9 10 11
10 11 11 11 12 11 12 12 12 12 12 12 11 11 11 10 10 11 11 11 11 11 11 11 11 11 10 10 9 9 8 8 8 8 7 6 6 5 6 6 8 10 12 13 14 14 14 15 15 16 17 18 19 20 20 20 20 18 19 19 18 17 15 11 9 8 5 2 1 1 1 1 1 2 4 4 5 5 6 8 9 10 11 12 13
13 13 13 14 13 13 13 13 13 13 13 12 12 12 12 12 12 12 13 14 14 14 13 13 14 14 13 12 12 11 11 11 11 11 10 10 9 9 8 8 8 10 12 13 13 14 15 16 17 18 19 20 21 21 20 20 20 19 20 20 19 18 15 11 8 7 5 3 1 1 1 0 1 3 4 5 5 6 8 10 11 12 13 13 13
11 11 12 14 14 15 15 15 16 15 15 14 14 15 15 15 15 15 15 16 16 16 16 15 16 16 16 15 15 14 14 13 13 13 13 13 13 13 12 11 11 12 13 14 14 14 15 16 17 19 21 21 21 21 22 21 21 20 19 18 18 17 15 12 9 7 5 3 1 0 1 2 3 4 5 5 6 8 10 12 13 14 14 13 13
6 6 7 7 8 9 10 10 12 12 12 13 14 16 17 19 20 20 20 19 19 19 19 19 19 19 19 19 19 18 17 16 16 16 16 16 16 16 16 16 15 15 16 17 18 18 18 18 19 20 21 22 22 22 23 22 22 21 20 18 16 15 12 10 8 6 5 3 2 2 2 3 4 4 5 6 7 9 12 14 14 14 13 13 13
7 7 7 6 6 5 4 5 5 5 6 7 8 9 12 14 17 19 20 22 22 22 22 22 22 23 22 22 22 21 20 19 19 19 19 19 19 19 20 19 19 20 20 20 21 21 22 22 22 21 21 21 22 23 23 22 22 22 22 19 16 13 10 7 6 5 4 3 2 3 3 4 5 6 6 7 9 11 13 15 14 13 13 13 14
6 6 6 5 5 5 4 4 4 4 4 5 6 6 8 9 11 13 15 17 19 21 21 22 23 23 23 24 24 23 22 22 22 22 21 21 21 21 21 21 21 22 22 23 23 22 24 25 23 21 20 20 22 22 22 22 21 20 19 16 13 10 8 7 6 5 4 3 3 3 3 4 6 8 8 9 12 14 15 14 13 12 12 13 14
6 6 5 4 4 3 2 2 3 3 4 5 7 8 9 10 11 11 13 14 16 18 20 20 21 22 22 23 24 24 24 24 23 22 22 21 21 22 22 22 22 23 23 23 23 23 23 23 20 17 16 16 18 20 21 22 21 19 16 13 11 9 8 8 7 5 4 4 4 4 4 5 7 9 10 12 15 16 15 13 11 9 10 13 16
11 10 8 7 7 6 4 3 2 1 1 2 4 6 8 10 11 12 13 15 16 18 20 20 21 22 22 23 23 23 24 24 23 22 21 21 21 21 22 22 23 23 23 23 22 21 20 19 19 17 13 11 13 17 19 19 19 17 15 13 11 10 9 8 7 7 6 4 5 6 6 6 7 10 13 15 17 17 15 11 7 8 11 15 17
13 12 11 10 9 9 8 7 6 6 5 4 3 4 6 7 9 11 12 14 15 17 18 19 20 21 22 22 22 22 23 23 23 22 22 22 22 22 22 23 23 24 24 23 21 18 16 16 17 16 14 16 17 15 13 11 11 11 11 10 10 10 9 8 7 6 5 5 7 6 6 6 8 10 14 16 16 15 11 7 7 12 16 18 17
10 10 9 9 9 10 10 9 8 7 7 7 6 6 6 7 8 9 10 13 14 15 16 17 19 20 21 21 21 21 22 23 23 23 22 22 23 23 23 23 24 26 26 24 21 18 16 15 15 15 17 19 18 14 11 9 9 9 8 7 7 7 7 6 5 4 3 4 6 5 5 6 8 10 12 12 10 8 6 7 13 18 19 19 17
Wind_Direction
143 144 142 140 140 139 140 143 141 136 132 131 132 126 121 117 113 112 106 101 100 92 89 100 108 115 122 127 142 158 169 177 182 184 177 168 160 150 144 140 151 156 83 105 89 57 64 89 97 101 102 102 95 87 84 85 82 78 83 87 84 81 80 80 80 82 79 76 73 64 58 63 65 69 63 58 59 57 62 69 71 66 58 65 70
147 143 140 140 143 148 153 154 150 143 141 145 152 143 123 116 108 108 109 105 110 107 94 101 111 117 126 128 137 153 167 176 183 187 180 171 165 156 147 145 157 154 106 112 107 71 70 81 82 86 88 83 81 75 70 71 69 63 64 76 87 87 85 86 85 81 79 81 79 67 67 69 60 64 69 63 61 56 56 65 70 65 54 58 68
154 150 149 152 159 170 166 161 159 155 161 175 183 188 173 136 108 108 114 115 124 127 114 115 126 125 129 135 146 157 169 178 185 187 182 172 168 166 153 151 163 152 133 135 110 74 93 100 84 83 84 79 81 73 66 63 55 49 43 47 63 80 89 89 83 80 84 81 72 58 61 70 66 68 70 67 68 63 56 60 65 66 60 58 62
168 170 172 174 178 198 191 157 160 171 189 197 197 198 190 177 147 128 125 125 133 135 126 133 142 130 128 143 163 170 175 182 186 186 182 175 173 173 160 157 165 160 159 169 132 59 106 120 94 93 90 85 91 78 71 65 52 47 43 40 44 53 66 76 79 79 80 76 71 62 58 62 66 74 72 65 69 67 60 61 63 65 63 64 68
180 180 181 185 192 213 237 178 174 188 193 190 189 188 178 170 159 150 143 135 136 134 128 137 148 135 135 153 172 177 179 182 186 186 182 178 178 176 167 165 168 172 176 176 178 75 96 114 100 106 100 95 103 90 82 69 51 47 46 43 44 53 62 66 69 72 71 69 73 68 56 48 49 59 67 66 67 64 61 58 57 60 58 56 62
181 185 189 197 207 210 213 193 186 188 181 177 178 173 164 159 155 156 150 140 139 135 132 142 146 142 146 159 169 174 178 180 182 186 185 184 186 180 170 168 174 182 176 166 189 157 115 115 85 86 44 8 68 104 105 72 54 51 46 41 47 55 63 64 59 62 62 61 66 64 50 44 45 45 53 66 66 62 57 44 43 58 65 57 50
186 193 203 208 209 207 202 191 185 180 174 169 168 167 163 159 155 157 153 144 143 140 143 156 152 148 152 159 162 165 172 177 183 191 192 191 191 185 172 169 175 182 176 167 187 178 147 116 81 89 1 21 53 71 114 78 55 52 47 42 51 56 57 60 57 57 59 58 54 50 45 39 38 42 44 53 59 57 56 48 47 55 68 69 59
198 200 203 201 200 199 192 182 175 169 165 161 162 169 168 162 156 159 161 148 148 155 157 161 155 150 153 156 158 160 165 171 181 187 190 193 191 189 182 177 175 172 173 177 191 205 169 122 96 108 54 56 67 56 54 64 51 52 51 49 59 61 60 62 62 61 56 56 54 44 42 35 32 41 34 33 42 40 45 52 50 49 53 69 78
199 196 194 195 195 189 182 174 167 160 161 162 163 168 169 167 157 155 166 156 158 163 153 144 135 131 134 137 142 148 157 167 176 180 184 189 188 191 191 183 180 169 165 175 190 218 176 143 134 142 50 34 55 51 40 55 79 74 55 63 69 63 62 62 62 66 64 66 63 51 48 40 33 40 32 26 27 18 22 27 24 46 47 55 83
188 189 186 192 192 182 177 171 166 162 168 172 166 164 165 170 161 152 155 159 163 158 139 124 110 101 98 99 106 119 142 164 171 174 179 185 189 195 192 178 177 173 170 168 162 194 181 161 175 187 211 356 25 19 3 37 81 81 51 74 83 68 66 70 68 68 67 71 74 64 59 50 37 36 32 25 23 19 22 20 12 20 30 37 60
174 179 183 189 186 180 178 170 166 167 174 177 169 166 161 165 169 158 145 149 160 149 135 122 103 93 92 91 91 99 119 151 154 154 167 180 191 194 190 180 175 171 180 170 151 175 185 180 203 224 239 274 323 325 327 352 10 14 38 57 107 139 118 119 113 85 68 68 81 76 66 62 49 40 35 29 23 22 22 21 18 6 0 10 13
164 172 181 185 185 186 182 169 165 167 174 180 172 166 158 160 173 165 149 148 151 143 142 129 106 94 94 96 98 101 108 123 119 120 147 173 197 194 186 180 180 185 186 176 167 176 185 189 210 236 255 264 274 292 304 328 331 332 13 12 302 209 199 229 151 118 120 130 115 88 72 72 59 47 44 41 34 28 25 19 18 10 0 359 355
161 169 175 179 183 191 186 170 165 166 172 179 173 169 163 162 168 166 160 156 149 143 145 132 111 99 94 92 94 98 106 114 95 83 96 105 113 185 183 183 183 181 173 173 184 189 193 196 206 245 284 304 281 260 278 307 324 325 333 323 309 302 287 270 247 250 242 207 200 204 168 85 72 56 45 44 41 34 30 22 18 16 9 3 355
157 161 165 172 176 181 182 172 166 166 172 178 179 179 178 178 169 164 168 163 158 154 147 133 117 114 109 96 88 89 91 91 80 68 66 68 69 90 130 178 186 177 173 177 186 188 186 178 180 232 301 334 320 287 285 300 312 320 326 318 317 329 322 280 250 254 273 264 215 226 239 256 207 73 42 36 33 27 25 23 23 20 10 3 358
150 153 158 167 172 173 174 174 171 171 178 181 183 183 185 190 176 169 171 164 162 163 157 144 136 132 120 107 94 85 79 67 68 67 67 71 77 84 86 116 144 151 173 178 178 179 176 167 169 247 300 329 331 305 304 316 320 325 340 345 339 333 342 348 314 268 283 326 26 258 276 271 261 299 351 359 352 356 2 6 20 24 17 7 352
146 150 158 161 168 174 175 176 177 178 184 188 187 186 190 190 179 181 180 168 162 169 170 158 152 146 122 100 105 97 97 75 70 66 70 72 74 87 89 96 103 101 117 121 126 145 150 140 132 330 323 332 327 283 303 327 347 357 359 8 13 1 358 7 14 28 12 349 341 290 300 289 241 266 287 275 267 265 297 328 358 18 17 10 353
142 150 160 160 162 171 178 179 180 181 187 194 196 194 194 192 184 186 189 182 173 177 183 173 164 162 135 126 108 62 167 125 103 69 68 76 74 82 87 93 104 104 99 92 94 106 112 112 103 78 68 63 79 84 82 69 42 37 26 27 39 47 48 31 33 50 56 42 26 12 357 333 264 245 267 271 276 269 261 274 307 6 11 7 356
138 143 152 159 159 161 168 176 179 179 182 193 200 197 195 195 189 188 193 195 188 185 190 188 179 179 167 165 145 169 164 142 123 74 75 83 81 83 89 94 99 98 95 91 83 89 102 108 103 105 103 92 85 81 83 83 74 71 63 55 54 58 65 53 50 60 62 61 60 60 52 42 48 40 16 12 359 321 287 284 283 280 304 312 312
142 140 140 148 155 157 162 169 174 175 178 188 194 195 195 194 191 189 191 197 198 195 197 195 189 198 226 231 268 168 161 151 145 138 105 93 86 84 86 88 94 94 94 95 87 88 95 99 99 103 100 89 85 86 89 90 90 90 81 74 69 66 71 70 71 77 79 79 76 74 72 67 67 59 52 51 51 53 51 47 48 354 310 292 290
155 148 139 138 149 158 162 167 170 172 177 185 190 190 189 188 187 188 188 195 205 207 205 200 192 195 216 230 218 167 162 162 154 139 122 116 101 88 86 89 92 91 89 91 94 94 94 95 97 98 95 90 90 90 92 93 92 91 87 83 79 75 75 77 81 85 86 85 82 78 73 67 64 61 60 61 65 73 77 74 76 71 59 43 5
162 156 146 139 149 156 157 156 159 167 174 180 187 187 185 187 189 189 189 192 202 212 214 205 193 192 196 178 158 152 148 146 143 131 119 128 125 107 105 99 88 79 80 84 85 87 88 90 93 96 95 93 95 96 96 97 95 94 92 90 86 82 79 77 78 80 82 82 81 77 73 70 69 67 67 68 70 75 76 75 75 75 72 65 53
159 156 151 148 151 154 149 142 143 159 170 173 180 184 186 191 196 196 196 196 195 201 214 206 196 200 200 174 155 147 136 130 137 131 120 114 116 124 121 106 87 74 77 80 75 77 83 85 91 95 98 98 100 103 102 100 98 96 95 92 91 89 87 84 81 79 80 80 77 74 73 72 71 69 67 66 67 69 70 71 71 71 71 67 61
153 151 153 158 159 157 149 141 137 154 169 173 177 179 182 190 199 202 203 205 197 192 198 202 201 203 201 186 169 157 148 156 157 148 138 125 122 128 113 101 94 80 79 82 82 86 87 91 98 100 103 105 105 105 105 101 97 96 95 93 91 91 90 89 87 83 82 81 78 75 72 69 67 65 63 60 58 56 55 57 59 61 62 60 55
156 155 159 169 173 169 161 154 146 148 163 172 174 176 183 189 198 203 204 206 199 190 190 196 203 201 194 189 178 166 161 174 169 161 151 141 133 129 115 105 98 89 93 96 95 98 101 102 105 108 110 110 110 108 104 102 100 99 98 94 92 91 90 88 87 85 82 80 79 76 73 69 66 64 61 57 54 50 47 44 42 43 41 41 38
167 165 164 173 179 177 171 160 141 128 141 151 158 168 183 188 192 197 200 205 202 194 188 187 193 196 194 190 185 182 176 173 176 169 151 139 132 127 122 116 117 113 106 105 104 103 109 114 113 115 116 115 114 112 109 108 107 103 100 97 94 92 90 88 86 85 83 81 79 77 75 72 67 63 60 57 54 51 48 44 41 39 38 37 35
177 171 162 166 176 176 170 155 133 113 124 136 139 145 157 176 182 186 190 199 202 195 187 181 182 192 199 199 194 191 178 169 179 173 155 146 141 136 128 114 112 115 109 116 116 108 116 124 125 123 122 122 119 117 118 116 111 105 101 98 95 92 89 87 85 84 83 81 79 76 73 70 66 62 58 55 54 52 50 48 44 40 37 36 35
182 174 160 161 171 171 164 152 132 116 120 128 127 121 116 142 160 165 168 169 175 179 176 173 170 179 193 197 193 190 179 174 180 179 170 162 154 147 140 130 110 85 102 122 120 129 137 133 134 134 130 128 127 125 126 122 114 108 103 99 97 94 90 87 84 83 81 78 75 71 66 63 59 56 53 51 50 49 48 46 44 41 37 35 35
187 179 163 160 169 169 163 154 140 126 125 129 128 120 109 120 148 153 151 149 158 168 167 166 160 162 174 180 183 180 170 170 178 183 181 172 162 154 147 142 139 121 84 140 115 140 151 146 141 145 142 136 134 134 132 127 120 113 107 101 99 96 91 88 86 83 80 77 73 68 64 58 54 49 45 44 43 41 39 38 38 39 39 40 42
190 185 170 162 170 173 168 159 151 137 128 133 135 129 120 126 145 146 140 136 139 136 137 145 141 138 146 150 157 156 153 162 175 181 179 172 164 160 154 147 143 139 132 179 189 176 168 161 152 155 154 146 142 141 138 133 127 121 114 106 102 98 95 91 89 85 81 76 71 67 63 58 52 46 40 36 33 30 28 29 31 34 39 44 46
187 185 178 169 170 179 177 165 156 147 134 136 142 135 131 142 145 140 133 131 124 112 111 118 113 111 115 123 134 137 141 154 164 171 174 173 168 164 161 152 143 143 153 151 189 196 178 171 166 162 159 153 149 148 146 141 135 129 124 116 109 105 101 98 95 92 86 79 72 65 59 54 48 42 36 30 23 18 18 23 28 31 36 40 40
184 182 182 178 174 181 180 170 160 153 144 147 153 146 145 153 150 142 137 134 128 117 111 108 108 115 117 119 126 127 132 143 153 164 172 175 175 171 167 160 142 140 156 148 150 196 189 181 169 165 161 157 156 155 153 149 143 137 131 124 117 112 107 105 102 99 95 87 78 68 57 49 43 36 30 22 14 9 9 18 27 31 30 29 29
183 182 184 187 182 179 177 174 168 159 152 151 156 157 157 157 153 146 142 141 137 127 117 107 103 121 130 126 127 127 129 139 151 164 175 180 183 185 186 186 184 162 163 158 144 173 187 183 170 170 169 162 161 162 161 158 154 147 139 131 125 118 112 109 106 105 103 97 87 73 57 46 37 29 21 13 7 4 5 12 22 28 25 15 11
181 182 186 190 184 178 176 176 172 168 162 155 158 164 163 159 156 153 150 157 168 157 145 133 121 129 138 132 134 139 142 149 157 169 181 189 196 202 209 218 224 218 192 178 152 155 179 185 176 178 178 172 168 167 168 168 162 156 149 142 137 131 126 121 117 115 114 107 94 74 55 42 30 18 11 6 4 2 1 4 11 16 17 8 358
178 178 187 193 188 183 180 180 178 179 179 167 163 170 172 167 164 163 162 169 177 171 162 155 145 146 150 144 143 150 157 167 175 185 196 204 212 217 222 229 234 230 216 200 174 163 176 186 183 183 185 182 179 175 175 175 171 167 160 154 150 146 144 145 143 136 126 114 94 67 48 33 18 8 5 4 1 358 356 357 1 4 6 5 360
176 175 189 196 192 188 186 186 187 189 190 182 175 176 181 181 178 174 169 165 162 158 155 154 151 149 155 156 156 161 169 180 189 200 212 219 225 230 233 235 238 238 226 211 200 182 179 184 188 190 189 188 188 186 183 182 180 178 174 168 163 158 158 164 166 155 138 122 96 62 36 19 10 5 3 1 355 351 350 350 350 353 357 360 2
173 173 189 197 196 194 194 193 192 193 193 190 186 182 182 186 186 179 172 168 167 162 156 154 152 147 154 161 164 170 180 191 201 209 221 237 242 245 247 243 242 243 234 218 217 208 189 187 191 194 194 193 193 194 191 191 192 192 190 187 181 174 172 177 178 168 151 134 97 45 18 8 4 1 358 352 347 345 346 346 342 343 350 352 355
175 174 189 200 203 203 202 200 194 190 189 186 183 180 178 181 183 182 182 183 182 177 173 171 161 154 168 178 178 178 186 202 216 225 237 257 269 274 275 264 250 246 238 222 219 221 207 197 194 193 197 200 200 200 199 199 201 202 200 202 200 191 182 179 177 168 158 144 89 19 7 3 358 353 348 343 343 344 347 347 344 344 351 351 350
182 181 195 210 214 213 211 207 199 191 188 183 181 182 184 187 189 197 208 208 199 192 192 196 187 166 169 183 188 185 186 206 227 254 274 285 295 297 297 295 275 250 232 220 218 223 224 215 202 194 198 204 205 207 206 208 212 212 206 201 197 189 183 179 173 166 166 162 78 1 356 354 348 343 339 339 344 348 349 350 349 350 353 352 351
191 189 205 219 220 216 213 212 206 199 194 191 192 196 200 207 216 229 233 225 216 211 218 227 226 214 194 181 181 182 185 216 245 278 298 305 310 309 305 300 289 254 224 217 219 225 229 224 208 200 201 205 208 212 213 214 217 218 210 193 175 171 176 178 174 171 172 168 47 353 348 350 344 339 339 341 345 349 348 348 348 350 353 351 349
203 199 211 223 220 214 214 214 212 207 205 205 209 215 220 229 242 252 245 236 232 234 242 246 241 242 243 233 228 236 251 286 306 313 311 306 300 299 297 292 281 257 230 221 223 228 229 222 210 204 204 206 209 214 214 211 209 207 206 196 179 171 173 174 174 178 183 186 341 348 345 348 349 343 343 347 352 352 345 343 342 343 345 344 341
223 214 216 223 221 218 217 214 213 214 215 216 218 223 231 240 250 259 255 248 249 254 261 262 255 249 249 250 255 264 273 284 297 306 305 299 293 285 282 282 276 265 247 236 234 232 226 218 210 204 202 205 209 210 208 208 209 205 201 196 183 173 174 175 179 191 201 223 309 346 349 354 4 350 343 349 354 350 338 334 335 336 336 336 334
245 232 223 227 227 226 223 217 218 221 223 226 228 229 234 241 249 257 257 256 259 265 270 269 264 257 254 258 263 267 275 281 287 293 293 289 286 276 269 268 269 268 262 253 246 240 230 220 215 208 203 205 210 212 212 212 212 206 198 192 182 172 172 175 182 198 214 242 312 43 63 35 358 330 340 352 353 345 339 336 336 336 336 334 332
249 241 234 237 236 235 234 230 230 232 232 234 236 238 241 245 251 255 257 257 258 261 265 265 265 265 263 264 267 268 273 278 280 282 284 285 285 280 273 265 261 263 263 258 253 247 240 232 224 217 213 214 215 214 214 211 207 202 197 192 183 175 176 179 185 202 219 236 232 123 108 336 306 316 330 343 345 344 342 341 339 337 333 330 328
243 241 241 243 243 244 245 244 244 245 246 247 247 247 248 249 253 255 256 258 258 258 259 261 263 265 265 267 268 269 271 273 275 275 275 277 279 279 277 270 262 259 258 258 257 253 248 243 235 227 225 225 220 214 213 211 204 197 192 189 185 181 184 189 193 201 215 230 249 300 302 286 292 305 315 323 331 337 338 337 334 330 324 322 322
210 210 214 222 228 239 243 244 246 247 250 255 255 255 254 254 255 256 256 257 259 259 261 263 264 265 267 268 268 268 269 269 269 268 266 264 266 266 266 263 259 258 257 258 259 260 260 257 249 243 239 234 228 222 218 212 202 191 183 182 184 185 188 194 199 206 213 221 247 280 274 271 283 295 301 308 317 326 330 329 327 322 317 315 318
161 159 158 163 169 181 193 204 216 225 237 252 258 261 262 261 261 261 260 259 260 261 263 264 266 266 267 268 268 268 269 268 267 267 265 263 262 260 259 256 255 256 257 257 257 258 259 258 254 253 253 247 242 236 223 211 203 196 187 185 187 189 191 196 203 210 215 229 265 280 259 259 281 293 295 301 309 318 325 326 322 316 309 310 314
150 141 140 146 152 162 177 189 195 200 217 236 249 260 266 268 269 267 266 265 264 265 266 266 267 268 269 270 270 270 272 272 272 273 271 270 270 267 263 258 255 254 255 256 257 255 255 255 254 255 260 259 252 240 219 203 200 197 191 189 191 191 188 186 192 204 220 244 272 287 270 269 288 297 299 306 312 320 326 326 320 313 307 309 313
126 122 117 106 109 129 159 195 210 215 225 235 241 247 252 257 261 264 267 271 271 271 271 270 270 270 270 271 270 271 274 275 276 276 275 274 273 271 268 264 260 257 255 255 256 254 252 253 250 248 256 261 250 229 206 193 188 187 184 181 182 184 179 174 184 206 227 248 277 297 294 291 300 303 307 314 317 321 327 326 319 314 311 311 313
88 88 85 78 76 77 80 81 70 57 356 275 261 258 258 258 258 259 263 268 271 272 273 273 275 275 274 273 274 275 276 276 277 277 277 276 275 272 270 267 261 257 254 252 253 251 246 244 241 235 232 224 210 198 190 187 187 186 183 178 178 182 182 179 190 209 223 250 284 296 297 302 307 309 313 319 320 323 328 330 324 317 313 314 318
67 67 66 67 67 63 61 59 52 47 40 24 354 313 293 281 273 269 268 268 269 271 271 272 274 275 274 274 274 275 277 278 279 279 278 277 276 273 271 266 259 255 251 247 246 241 231 227 226 218 200 182 174 172 176 182 185 186 185 184 183 185 187 190 196 207 227 259 273 281 295 303 307 315 321 322 321 322 328 333 325 318 318 321 324
52 50 48 50 54 52 49 44 37 31 27 20 7 350 334 317 301 290 282 278 277 277 278 278 278 276 275 274 275 277 280 283 285 286 284 280 276 274 272 264 256 255 252 245 239 230 217 209 200 187 178 174 176 184 195 198 194 189 184 179 178 184 191 198 201 205 230 256 256 267 296 305 308 320 327 325 322 322 326 321 317 318 322 326 325